Regional Weather Roundup
Issued by NWS State College, PA

Home | Current Version | Previous Version | Graphics & Text | Print | Product List | Glossary Off
Versions: 1 2 3 4 5 6 7 8 9 10 11 12 13 14 15 16 17 18 19 20 21 22 23 24 25 26 27 28 29 30 31 32 33 34 35 36 37 38 39 40 41 42 43 44 45 46 47 48 49 50

000
ASUS41 KCTP 290310
RWRCTP

REGIONAL WEATHER ROUNDUP
NATIONAL WEATHER SERVICE STATE COLLEGE PA
1100 PM EDT THU AUG 28 2014

Note: "fair" indicates few or no clouds below 12,000 feet with no
significant weather and/or obstructions to visibility.

* = STATION THAT DOES NOT REPORT PRECIPITATION /E.G. RAIN...SNOW...ETC/
    THUNDER OR FOG.

PAZ002>004-007>009-013>016-020>023-029>032-290400-
WESTERN PENNSYLVANIA

CITY           SKY/WX    TMP DP  RH WIND       PRES   REMARKS
ERIE           CLEAR     58  51  78 S6        30.15S
MEADVILLE      CLEAR     56  50  80 CALM      30.17R
FRANKLIN*      CLEAR     54  46  76 CALM      30.18S
NEW CASTLE     FAIR      54  52  93 CALM      30.18R
BEAVER COUNTY  NOT AVBL
BUTLER*        CLEAR     54  48  82 CALM      30.17S
PITTSBURGH INT PTCLDY    64  51  62 VRB5      30.15R
PITTSBURGH     CLEAR     61  51  70 N6        30.14R
INDIANA*       CLOUDY    55  52  88 CALM      30.19R
LATROBE        CLEAR     57  55  94 CALM      30.16R
WASHINGTON CO* CLEAR     54  54 100 CALM      30.16R
$$

PAZ004>006-010>012-017>019-024>028-033>037-041-042-045-046-049>053-290400-
CENTRAL PENNSYLVANIA

CITY           SKY/WX    TMP DP  RH WIND       PRES   REMARKS
BRADFORD       CLEAR     47  44  90 CALM      30.17S
DUBOIS         CLEAR     54  48  80 N6        30.16R
CLEARFIELD     CLEAR     54  50  86 N3        30.16R
JOHNSTOWN      CLEAR     60  48  64 NW3       30.17R
ALTOONA        CLEAR     58  53  84 CALM      30.15R
STATE COLLEGE  CLEAR     60  49  68 CALM      30.14R
WILLIAMSPORT   CLEAR     60  48  64 CALM      30.12R
SELINSGROVE    CLEAR     58  52  80 N6        30.13R
FT INDIANTOWN  CLEAR     64  49  57 N7        30.11R
CAPITAL CITY   CLEAR     69  49  48 N6        30.10R
HARRISBURG     PTCLDY    65  50  58 CALM      30.09R
YORK           PTCLDY    55  53  93 CALM      30.10R
$$

PAZ038>040-043-044-047-048-054-055-060>062-067>071-290400-
EASTERN PENNSYLVANIA

CITY           SKY/WX    TMP DP  RH WIND       PRES   REMARKS
SCRANTON       CLEAR     61  48  62 N8        30.11S
MOUNT POCONO   CLEAR     52  46  80 NW5       30.12R
ALLENTOWN      CLEAR     62  46  55 N6        30.10R
QUAKERTOWN*    CLEAR     63  48  59 MISG      30.10R
READING        CLEAR     64  50  60 N5        30.09R
LANCASTER      CLEAR     63  50  62 N7        30.10R
COATESVILLE    CLEAR     64  54  68 N5        30.10R
POTTSTOWN      CLEAR     64  47  53 N8        30.10R
BLUE BELL      CLEAR     66  50  55 N5        30.08R
DOYLESTOWN     CLEAR     62  50  64 N5        30.08R
WILLOW GROVE   NOT AVBL
NORTH PHILA    CLEAR     68  48  48 N12       30.08R
PHILADELPHIA   PTCLDY    71  49  45 N14       30.07R
$$



USA.gov is the U.S. government's official web portal to all federal, state and local government web resources and services.